| time (UTC) | temp C | wind direction | speed KPH | gust KPH | rain 1hr cm | rain 24hr cm | rain mn cm | humidity % | barometer mb |
| 20260906173736 | 25 | 319 | 0.0 | 6.4 | 0.00 | 0.00 | 0.00 | 77 | 1017.8 |
| 20260906173232 | 25 | 285 | 4.8 | 6.4 | 0.00 | 0.00 | 0.00 | 79 | 1017.8 |
| 20260906172731 | 25 | 71 | 4.8 | 4.8 | 0.00 | 0.00 | 0.00 | 79 | 1017.6 |
| 20260906172226 | 25 | 212 | 0.0 | 6.4 | 0.00 | 0.00 | 0.00 | 79 | 1017.7 |
| 20260906171721 | 25 | 41 | 3.2 | 6.4 | 0.00 | 0.00 | 0.00 | 79 | 1017.9 |
| 20260906171216 | 25 | 0 | 1.6 | 8.0 | 0.00 | 0.00 | 0.00 | 79 | 1017.8 |
| 20260906170712 | 25 | 270 | 0.0 | 4.8 | 0.00 | 0.00 | 0.00 | 79 | 1018.0 |
| 20260906170213 | 25 | 123 | 0.0 | 4.8 | 0.00 | 0.00 | 0.00 | 78 | 1018.2 |
| 20260906165709 | 25 | 308 | 0.0 | 3.2 | 0.00 | 0.00 | 0.00 | 78 | 1018.1 |
| 20260906165204 | 25 | 62 | 9.7 | 9.7 | 0.00 | 0.00 | 0.00 | 79 | 1018.2 |
| 20260906164703 | 25 | 15 | 0.0 | 8.0 | 0.00 | 0.00 | 0.00 | 80 | 1018.3 |
| 20260906164158 | 24 | 60 | 1.6 | 4.8 | 0.00 | 0.00 | 0.00 | 80 | 1018.3 |
| 20260906163654 | 24 | 209 | 1.6 | 8.0 | 0.00 | 0.00 | 0.00 | 81 | 1018.2 |
| 20260906163150 | 24 | 66 | 0.0 | 8.0 | 0.00 | 0.00 | 0.00 | 82 | 1018.3 |
| 20260906162647 | 23 | 8 | 0.0 | 8.0 | 0.00 | 0.00 | 0.00 | 82 | 1018.4 |
| 20260906162146 | 24 | 34 | 0.0 | 6.4 | 0.00 | 0.00 | 0.00 | 80 | 1018.4 |
| 20260906161641 | 23 | 124 | 3.2 | 8.0 | 0.00 | 0.00 | 0.00 | 82 | 1018.2 |
| 20260906161140 | 23 | 233 | 0.0 | 11.3 | 0.00 | 0.00 | 0.00 | 83 | 1018.4 |
| 20260906160639 | 23 | 168 | 0.0 | 8.0 | 0.00 | 0.00 | 0.00 | 84 | 1018.4 |
| 20260906160139 | 23 | 81 | 0.0 | 8.0 | 0.00 | 0.00 | 0.00 | 84 | 1018.7 |
| 20260906155636 | 23 | 220 | 3.2 | 8.0 | 0.00 | 0.00 | 0.00 | 85 | 1018.0 |
| 20260906155132 | 22 | 12 | 4.8 | 9.7 | 0.00 | 0.00 | 0.00 | 86 | 1018.3 |
| 20260906154627 | 22 | 5 | 1.6 | 9.7 | 0.00 | 0.00 | 0.00 | 86 | 1018.3 |
| 20260906154127 | 22 | 82 | 3.2 | 6.4 | 0.00 | 0.00 | 0.00 | 86 | 1018.2 |
| 20260906153625 | 22 | 324 | 3.2 | 4.8 | 0.00 | 0.00 | 0.00 | 87 | 1018.4 |
| 20260906153121 | 22 | 150 | 3.2 | 8.0 | 0.00 | 0.00 | 0.00 | 87 | 1018.5 |
| 20260906152615 | 22 | 90 | 0.0 | 6.4 | 0.00 | 0.00 | 0.00 | 88 | 1018.5 |
| 20260906152109 | 22 | 18 | 0.0 | 6.4 | 0.00 | 0.00 | 0.00 | 89 | 1018.9 |
| 20260906151604 | 22 | 107 | 3.2 | 8.0 | 0.00 | 0.00 | 0.00 | 88 | 1018.8 |
| 20260906151100 | 22 | 270 | 0.0 | 9.7 | 0.00 | 0.00 | 0.00 | 89 | 1018.4 |
| 20260906150555 | 22 | 47 | 4.8 | 6.4 | 0.00 | 0.00 | 0.00 | 88 | 1018.4 |
| 20260906150050 | 21 | 29 | 4.8 | 9.7 | 0.00 | 0.00 | 0.00 | 89 | 1018.6 |
| 20260906145549 | 21 | 68 | 3.2 | 6.4 | 0.00 | 0.00 | 0.00 | 89 | 1018.4 |
| 20260906145044 | 22 | 187 | 0.0 | 8.0 | 0.00 | 0.00 | 0.00 | 88 | 1018.6 |
| 20260906144538 | 22 | 54 | 1.6 | 11.3 | 0.00 | 0.00 | 0.00 | 89 | 1018.4 |
| 20260906144034 | 22 | 97 | 0.0 | 4.8 | 0.00 | 0.00 | 0.00 | 88 | 1018.4 |
| 20260906143528 | 22 | 90 | 0.0 | 9.7 | 0.00 | 0.00 | 0.00 | 89 | 1018.4 |
| 20260906143025 | 22 | 107 | 0.0 | 8.0 | 0.00 | 0.00 | 0.00 | 88 | 1018.3 |
| 20260906142519 | 22 | 309 | 0.0 | 14.5 | 0.00 | 0.00 | 0.00 | 87 | 1018.4 |
| 20260906142015 | 22 | 255 | 1.6 | 6.4 | 0.00 | 0.00 | 0.00 | 87 | 1018.3 |
| 20260906141514 | 22 | 90 | 0.0 | 4.8 | 0.00 | 0.00 | 0.00 | 87 | 1018.4 |
| 20260906141009 | 22 | 57 | 3.2 | 8.0 | 0.00 | 0.00 | 0.00 | 88 | 1018.3 |
| 20260906140503 | 22 | 352 | 0.0 | 12.9 | 0.00 | 0.00 | 0.00 | 89 | 1018.4 |
| 20260906140001 | 22 | 110 | 3.2 | 11.3 | 0.00 | 0.00 | 0.00 | 89 | 1018.3 |
| 20260906135459 | 22 | 54 | 4.8 | 6.4 | 0.00 | 0.00 | 0.00 | 89 | 1018.3 |
| 20260906134955 | 22 | 100 | 6.4 | 9.7 | 0.00 | 0.00 | 0.00 | 90 | 1018.3 |
| 20260906134450 | 22 | 106 | 6.4 | 6.4 | 0.00 | 0.00 | 0.00 | 89 | 1018.2 |
| 20260906133945 | 22 | 29 | 3.2 | 4.8 | 0.00 | 0.00 | 0.00 | 89 | 1017.9 |
| 20260906133441 | 22 | 78 | 3.2 | 4.8 | 0.00 | 0.00 | 0.00 | 89 | 1018.1 |
| 20260906132936 | 22 | 0 | 6.4 | 9.7 | 0.00 | 0.00 | 0.00 | 88 | 1017.9 |
| 20260906132431 | 22 | 45 | 4.8 | 8.0 | 0.00 | 0.00 | 0.00 | 89 | 1017.9 |
| 20260906131927 | 22 | 38 | 4.8 | 12.9 | 0.00 | 0.00 | 0.00 | 88 | 1018.0 |
| 20260906131422 | 22 | 144 | 3.2 | 8.0 | 0.00 | 0.00 | 0.00 | 88 | 1017.8 |
| 20260906130917 | 22 | 68 | 0.0 | 4.8 | 0.00 | 0.00 | 0.00 | 88 | 1018.0 |
| 20260906130416 | 22 | 12 | 3.2 | 6.4 | 0.00 | 0.00 | 0.00 | 88 | 1017.8 |
| 20260906125911 | 22 | 74 | 3.2 | 6.4 | 0.00 | 0.00 | 0.00 | 89 | 1017.9 |
| 20260906125408 | 22 | 84 | 0.0 | 6.4 | 0.00 | 0.00 | 0.00 | 90 | 1017.7 |
| 20260906124903 | 21 | 114 | 0.0 | 4.8 | 0.00 | 0.00 | 0.00 | 90 | 1017.8 |
| 20260906124359 | 21 | 106 | 4.8 | 4.8 | 0.00 | 0.00 | 0.00 | 91 | 1017.7 |
| 20260906123858 | 21 | 90 | 4.8 | 4.8 | 0.00 | 0.00 | 0.00 | 92 | 1017.7 |
| 20260906123353 | 21 | 117 | 3.2 | 6.4 | 0.00 | 0.00 | 0.00 | 92 | 1017.7 |
| 20260906122852 | 21 | 106 | 0.0 | 3.2 | 0.00 | 0.00 | 0.00 | 93 | 1018.0 |
| 20260906122347 | 21 | 32 | 3.2 | 3.2 | 0.00 | 0.00 | 0.00 | 93 | 1017.6 |
| 20260906121844 | 20 | 90 | 1.6 | 1.6 | 0.00 | 0.00 | 0.00 | 94 | 1017.7 |
| 20260906121340 | 20 | 107 | 0.0 | 4.8 | 0.00 | 0.00 | 0.00 | 94 | 1017.7 |
| 20260906120836 | 20 | 270 | 0.0 | 1.6 | 0.00 | 0.00 | 0.00 | 94 | 1017.4 |
| 20260906120331 | 20 | 69 | 0.0 | 3.2 | 0.00 | 0.00 | 0.00 | 94 | 1017.7 |
| 20260906115827 | 20 | 126 | 0.0 | 1.6 | 0.00 | 0.00 | 0.00 | 94 | 1017.6 |
| 20260906115323 | 20 | 90 | 0.0 | 0.0 | 0.00 | 0.00 | 0.00 | 94 | 1017.6 |
| 20260906114822 | 20 | 8 | 0.0 | 0.0 | 0.00 | 0.00 | 0.00 | 95 | 1017.6 |
| 20260906114317 | 20 | 60 | 0.0 | 0.0 | 0.00 | 0.00 | 0.00 | 94 | 1017.3 |
| 20260906113812 | 20 | 111 | 0.0 | 1.6 | 0.00 | 0.00 | 0.00 | 94 | 1017.4 |
| 20260906113311 | 20 | 90 | 0.0 | 0.0 | 0.00 | 0.00 | 0.00 | 94 | 1017.4 |
| 20260906112807 | 20 | 110 | 3.2 | 3.2 | 0.00 | 0.00 | 0.00 | 94 | 1017.3 |
| 20260906112306 | 20 | 123 | 3.2 | 8.0 | 0.00 | 0.00 | 0.00 | 94 | 1017.5 |
| 20260906111802 | 20 | 20 | 0.0 | 4.8 | 0.00 | 0.00 | 0.00 | 94 | 1017.3 |
| 20260906111301 | 20 | 172 | 0.0 | 3.2 | 0.00 | 0.00 | 0.00 | 94 | 1017.3 |
| 20260906110757 | 20 | 98 | 0.0 | 1.6 | 0.00 | 0.00 | 0.00 | 94 | 1017.4 |
| 20260906110253 | 21 | 109 | 0.0 | 4.8 | 0.00 | 0.00 | 0.00 | 94 | 1017.1 |
| 20260906105751 | 21 | 80 | 3.2 | 4.8 | 0.00 | 0.00 | 0.00 | 94 | 1017.1 |
| 20260906105242 | 21 | 0 | 0.0 | 8.0 | 0.00 | 0.00 | 0.00 | 94 | 1017.1 |
| 20260906104737 | 21 | 0 | 0.0 | 4.8 | 0.00 | 0.00 | 0.00 | 94 | 1017.2 |
| 20260906104236 | 21 | 57 | 0.0 | 6.4 | 0.00 | 0.00 | 0.00 | 94 | 1017.4 |
| 20260906103733 | 21 | 0 | 0.0 | 0.0 | 0.00 | 0.00 | 0.00 | 93 | 1017.1 |
| 20260906103228 | 21 | 180 | 0.0 | 1.6 | 0.00 | 0.00 | 0.00 | 93 | 1017.2 |
| 20260906102724 | 21 | 82 | 0.0 | 3.2 | 0.00 | 0.00 | 0.00 | 93 | 1017.1 |
| 20260906102223 | 21 | 252 | 3.2 | 3.2 | 0.00 | 0.00 | 0.00 | 93 | 1017.0 |
| 20260906101718 | 21 | 123 | 0.0 | 3.2 | 0.00 | 0.00 | 0.00 | 93 | 1017.3 |
| 20260906101213 | 21 | 95 | 3.2 | 4.8 | 0.00 | 0.00 | 0.00 | 93 | 1017.0 |
| 20260906100709 | 21 | 340 | 0.0 | 1.6 | 0.00 | 0.00 | 0.00 | 93 | 1017.1 |
| 20260906100209 | 21 | 74 | 0.0 | 1.6 | 0.00 | 0.00 | 0.00 | 93 | 1017.0 |
| 20260906095703 | 21 | 90 | 0.0 | 3.2 | 0.00 | 0.00 | 0.00 | 93 | 1016.9 |
| 20260906095159 | 21 | 270 | 0.0 | 1.6 | 0.00 | 0.00 | 0.00 | 93 | 1016.6 |
| 20260906094657 | 21 | 199 | 0.0 | 3.2 | 0.00 | 0.00 | 0.00 | 93 | 1016.5 |
| 20260906094153 | 21 | 90 | 0.0 | 3.2 | 0.00 | 0.00 | 0.00 | 93 | 1016.6 |
| 20260906093649 | 21 | 77 | 0.0 | 3.2 | 0.00 | 0.00 | 0.00 | 93 | 1016.5 |
| 20260906093144 | 21 | 106 | 0.0 | 3.2 | 0.00 | 0.00 | 0.00 | 93 | 1016.4 |
| 20260906092639 | 21 | 225 | 0.0 | 3.2 | 0.00 | 0.00 | 0.00 | 93 | 1016.4 |
| 20260906092139 | 21 | 117 | 4.8 | 4.8 | 0.00 | 0.00 | 0.00 | 92 | 1016.5 |
| 20260906091635 | 21 | 75 | 0.0 | 4.8 | 0.00 | 0.00 | 0.00 | 92 | 1016.1 |
| 20260906091132 | 21 | 15 | 0.0 | 8.0 | 0.00 | 0.00 | 0.00 | 92 | 1016.4 |
| 20260906090627 | 21 | 165 | 0.0 | 4.8 | 0.00 | 0.00 | 0.00 | 93 | 1016.3 |
| 20260906090127 | 21 | 90 | 0.0 | 0.0 | 0.00 | 0.00 | 0.00 | 93 | 1016.5 |
| 20260906085626 | 21 | 98 | 0.0 | 1.6 | 0.00 | 0.00 | 0.00 | 93 | 1016.1 |
| 20260906085120 | 21 | 107 | 3.2 | 3.2 | 0.00 | 0.00 | 0.00 | 93 | 1016.4 |
| 20260906084615 | 21 | 174 | 0.0 | 4.8 | 0.00 | 0.00 | 0.00 | 92 | 1016.4 |
| 20260906084114 | 21 | 206 | 3.2 | 8.0 | 0.00 | 0.00 | 0.00 | 92 | 1016.1 |
| 20260906083609 | 21 | 55 | 3.2 | 4.8 | 0.00 | 0.00 | 0.00 | 92 | 1016.3 |
| 20260906083109 | 21 | 106 | 3.2 | 4.8 | 0.00 | 0.00 | 0.00 | 91 | 1016.1 |
| 20260906082604 | 21 | 102 | 0.0 | 4.8 | 0.00 | 0.00 | 0.00 | 91 | 1016.3 |
| 20260906082100 | 21 | 140 | 0.0 | 3.2 | 0.00 | 0.00 | 0.00 | 91 | 1016.1 |
| 20260906081556 | 22 | 99 | 0.0 | 4.8 | 0.00 | 0.00 | 0.00 | 91 | 1016.1 |
| 20260906081051 | 22 | 174 | 0.0 | 6.4 | 0.00 | 0.00 | 0.00 | 91 | 1016.3 |
| 20260906080547 | 22 | 66 | 0.0 | 4.8 | 0.00 | 0.00 | 0.00 | 91 | 1016.3 |
| 20260906080038 | 22 | 32 | 0.0 | 9.7 | 0.00 | 0.00 | 0.00 | 91 | 1016.1 |
| 20260906075537 | 22 | 65 | 0.0 | 8.0 | 0.00 | 0.00 | 0.00 | 91 | 1016.0 |
| 20260906075032 | 22 | 23 | 0.0 | 4.8 | 0.00 | 0.00 | 0.00 | 91 | 1016.1 |
| 20260906074527 | 22 | 90 | 0.0 | 4.8 | 0.00 | 0.00 | 0.00 | 91 | 1016.0 |
| 20260906074025 | 22 | 90 | 0.0 | 4.8 | 0.00 | 0.00 | 0.00 | 91 | 1016.1 |
| 20260906073520 | 22 | 111 | 1.6 | 3.2 | 0.00 | 0.00 | 0.00 | 91 | 1016.4 |
| 20260906073017 | 22 | 90 | 0.0 | 3.2 | 0.00 | 0.00 | 0.00 | 90 | 1016.6 |
| 20260906072511 | 22 | 111 | 0.0 | 3.2 | 0.00 | 0.00 | 0.00 | 90 | 1016.5 |
| 20260906072008 | 22 | 132 | 0.0 | 6.4 | 0.00 | 0.00 | 0.00 | 90 | 1016.5 |
| 20260906071503 | 22 | 99 | 0.0 | 4.8 | 0.00 | 0.00 | 0.00 | 90 | 1016.6 |
| 20260906070958 | 22 | 103 | 0.0 | 4.8 | 0.00 | 0.00 | 0.00 | 90 | 1016.6 |
| 20260906070454 | 22 | 127 | 0.0 | 3.2 | 0.00 | 0.00 | 0.00 | 90 | 1016.6 |
| 20260906065950 | 22 | 106 | 0.0 | 3.2 | 0.00 | 0.00 | 0.00 | 89 | 1016.7 |
| 20260906065444 | 22 | 94 | 0.0 | 3.2 | 0.00 | 0.00 | 0.00 | 89 | 1016.8 |
| 20260906064939 | 22 | 97 | 0.0 | 1.6 | 0.00 | 0.00 | 0.00 | 89 | 1016.9 |
| 20260906064435 | 22 | 66 | 0.0 | 4.8 | 0.00 | 0.00 | 0.00 | 89 | 1016.6 |
| 20260906063930 | 22 | 120 | 0.0 | 3.2 | 0.00 | 0.00 | 0.00 | 89 | 1016.7 |
| 20260906063426 | 23 | 90 | 0.0 | 4.8 | 0.00 | 0.00 | 0.00 | 88 | 1016.7 |
| 20260906062921 | 23 | 107 | 6.4 | 6.4 | 0.00 | 0.00 | 0.00 | 88 | 1016.7 |
| 20260906062421 | 23 | 75 | 1.6 | 4.8 | 0.00 | 0.00 | 0.00 | 87 | 1016.7 |
| 20260906061916 | 23 | 85 | 0.0 | 3.2 | 0.00 | 0.00 | 0.00 | 87 | 1016.7 |
| 20260906061412 | 23 | 90 | 3.2 | 4.8 | 0.00 | 0.00 | 0.00 | 87 | 1016.6 |
| 20260906060906 | 23 | 110 | 0.0 | 3.2 | 0.00 | 0.00 | 0.00 | 86 | 1016.6 |
| 20260906060404 | 23 | 109 | 0.0 | 4.8 | 0.00 | 0.00 | 0.00 | 86 | 1016.9 |
| 20260906055859 | 23 | 84 | 1.6 | 4.8 | 0.00 | 0.00 | 0.00 | 86 | 1016.6 |
| 20260906055355 | 23 | 45 | 0.0 | 3.2 | 0.00 | 0.00 | 0.00 | 86 | 1016.7 |
| 20260906054850 | 23 | 90 | 0.0 | 0.0 | 0.00 | 0.00 | 0.00 | 87 | 1016.8 |
| 20260906054345 | 23 | 108 | 0.0 | 4.8 | 0.00 | 0.00 | 0.00 | 87 | 1016.6 |
| 20260906053841 | 23 | 99 | 0.0 | 4.8 | 0.00 | 0.00 | 0.00 | 87 | 1016.5 |
| 20260906053337 | 23 | 99 | 0.0 | 3.2 | 0.00 | 0.00 | 0.00 | 86 | 1016.6 |
| 20260906052832 | 23 | 254 | 0.0 | 1.6 | 0.00 | 0.00 | 0.00 | 86 | 1016.7 |
| 20260906052329 | 23 | 90 | 0.0 | 3.2 | 0.00 | 0.00 | 0.00 | 86 | 1016.8 |
| 20260906051825 | 23 | 90 | 0.0 | 6.4 | 0.00 | 0.00 | 0.00 | 85 | 1016.8 |
| 20260906051324 | 23 | 90 | 0.0 | 4.8 | 0.00 | 0.00 | 0.00 | 85 | 1016.7 |
| 20260906050820 | 23 | 75 | 0.0 | 1.6 | 0.00 | 0.00 | 0.00 | 86 | 1016.8 |
| 20260906050315 | 23 | 74 | 1.6 | 1.6 | 0.00 | 0.00 | 0.00 | 86 | 1016.8 |
| 20260906045814 | 23 | 114 | 0.0 | 0.0 | 0.00 | 0.00 | 0.00 | 86 | 1016.8 |
| 20260906045308 | 23 | 114 | 0.0 | 0.0 | 0.00 | 0.00 | 0.00 | 86 | 1016.8 |
| 20260906044805 | 23 | 74 | 0.0 | 3.2 | 0.00 | 0.00 | 0.00 | 86 | 1016.9 |
| 20260906044259 | 23 | 99 | 0.0 | 3.2 | 0.00 | 0.00 | 0.00 | 86 | 1016.8 |
| 20260906043755 | 23 | 111 | 0.0 | 3.2 | 0.00 | 0.00 | 0.00 | 86 | 1017.1 |
| 20260906043251 | 23 | 117 | 1.6 | 3.2 | 0.00 | 0.00 | 0.00 | 87 | 1017.2 |
| 20260906042751 | 23 | 117 | 0.0 | 0.0 | 0.00 | 0.00 | 0.00 | 86 | 1017.0 |
| 20260906042250 | 23 | 117 | 0.0 | 3.2 | 0.00 | 0.00 | 0.00 | 86 | 1017.1 |
| 20260906041745 | 23 | 109 | 0.0 | 4.8 | 0.00 | 0.00 | 0.00 | 86 | 1017.1 |
| 20260906041241 | 23 | 112 | 0.0 | 0.0 | 0.00 | 0.00 | 0.00 | 86 | 1017.0 |
| 20260906040736 | 23 | 119 | 0.0 | 0.0 | 0.00 | 0.00 | 0.00 | 86 | 1017.0 |
| 20260906040231 | 23 | 114 | 0.0 | 3.2 | 0.00 | 0.00 | 0.00 | 86 | 1017.1 |
| 20260906035726 | 23 | 0 | 0.0 | 1.6 | 0.00 | 0.00 | 0.00 | 85 | 1017.2 |
| 20260906035217 | 23 | 106 | 0.0 | 0.0 | 0.00 | 0.00 | 0.00 | 85 | 1017.1 |
| 20260906034716 | 23 | 109 | 0.0 | 3.2 | 0.00 | 0.00 | 0.00 | 86 | 1017.0 |
| 20260906034211 | 23 | 20 | 0.0 | 0.0 | 0.00 | 0.00 | 0.00 | 87 | 1017.1 |
| 20260906033706 | 23 | 20 | 0.0 | 0.0 | 0.00 | 0.00 | 0.00 | 87 | 1017.0 |
| 20260906033201 | 23 | 20 | 0.0 | 0.0 | 0.00 | 0.00 | 0.00 | 86 | 1017.1 |
| 20260906032658 | 23 | 20 | 0.0 | 0.0 | 0.00 | 0.00 | 0.00 | 86 | 1017.1 |
| 20260906032152 | 23 | 20 | 0.0 | 0.0 | 0.00 | 0.00 | 0.00 | 85 | 1017.2 |
| 20260906031648 | 23 | 20 | 0.0 | 1.6 | 0.00 | 0.00 | 0.00 | 84 | 1017.2 |
| 20260906031143 | 24 | 340 | 0.0 | 0.0 | 0.00 | 0.00 | 0.00 | 84 | 1017.0 |
| 20260906030642 | 24 | 340 | 0.0 | 0.0 | 0.00 | 0.00 | 0.00 | 84 | 1017.0 |
| 20260906030138 | 24 | 340 | 0.0 | 0.0 | 0.00 | 0.00 | 0.00 | 84 | 1017.2 |
| 20260906025637 | 24 | 340 | 0.0 | 0.0 | 0.00 | 0.00 | 0.00 | 83 | 1017.2 |
| 20260906025136 | 24 | 340 | 0.0 | 0.0 | 0.00 | 0.00 | 0.00 | 83 | 1017.1 |
| 20260906024631 | 24 | 99 | 0.0 | 0.0 | 0.00 | 0.00 | 0.00 | 83 | 1017.1 |
| 20260906024125 | 24 | 7 | 0.0 | 1.6 | 0.00 | 0.00 | 0.00 | 83 | 1017.2 |
| 20260906023621 | 24 | 195 | 0.0 | 0.0 | 0.00 | 0.00 | 0.00 | 83 | 1017.2 |
| 20260906023121 | 24 | 7 | 0.0 | 0.0 | 0.00 | 0.00 | 0.00 | 83 | 1017.1 |
| 20260906022616 | 24 | 7 | 0.0 | 0.0 | 0.00 | 0.00 | 0.00 | 83 | 1016.8 |
| 20260906022111 | 24 | 90 | 0.0 | 0.0 | 0.00 | 0.00 | 0.00 | 83 | 1016.8 |
| 20260906021608 | 24 | 105 | 0.0 | 1.6 | 0.00 | 0.00 | 0.00 | 83 | 1016.6 |
| 20260906021106 | 24 | 82 | 0.0 | 0.0 | 0.00 | 0.00 | 0.00 | 83 | 1016.4 |
| 20260906020605 | 24 | 106 | 0.0 | 0.0 | 0.00 | 0.00 | 0.00 | 83 | 1016.4 |
| 20260906020101 | 24 | 84 | 0.0 | 3.2 | 0.00 | 0.00 | 0.00 | 83 | 1016.4 |
| 20260906015559 | 24 | 0 | 0.0 | 4.8 | 0.00 | 0.00 | 0.00 | 83 | 1016.1 |
| 20260906015053 | 24 | 16 | 0.0 | 3.2 | 0.00 | 0.00 | 0.00 | 83 | 1015.9 |
| 20260906014548 | 25 | 353 | 0.0 | 3.2 | 0.00 | 0.00 | 0.00 | 82 | 1015.8 |
| 20260906014044 | 25 | 12 | 0.0 | 1.6 | 0.00 | 0.00 | 0.00 | 81 | 1015.6 |
| 20260906013539 | 25 | 352 | 0.0 | 4.8 | 0.00 | 0.00 | 0.00 | 81 | 1015.4 |
| 20260906013035 | 25 | 115 | 3.2 | 8.0 | 0.00 | 0.00 | 0.00 | 80 | 1015.4 |
| 20260906012530 | 25 | 188 | 0.0 | 4.8 | 0.00 | 0.00 | 0.00 | 80 | 1015.3 |
| 20260906012029 | 25 | 90 | 0.0 | 4.8 | 0.00 | 0.00 | 0.00 | 80 | 1015.4 |
| 20260906011526 | 25 | 99 | 4.8 | 4.8 | 0.00 | 0.00 | 0.00 | 80 | 1014.9 |
| 20260906011025 | 25 | 162 | 0.0 | 6.4 | 0.00 | 0.00 | 0.00 | 79 | 1014.8 |
| 20260906010520 | 25 | 0 | 1.6 | 9.7 | 0.00 | 0.00 | 0.00 | 79 | 1014.8 |
| 20260906010017 | 26 | 332 | 4.8 | 4.8 | 0.00 | 0.00 | 0.00 | 78 | 1014.8 |
| 20260906005516 | 26 | 84 | 3.2 | 6.4 | 0.00 | 0.00 | 0.00 | 78 | 1014.9 |
| 20260906005015 | 26 | 26 | 3.2 | 4.8 | 0.00 | 0.00 | 0.00 | 77 | 1014.9 |
| 20260906004509 | 26 | 246 | 0.0 | 11.3 | 0.00 | 0.00 | 0.00 | 76 | 1014.8 |
| 20260906004004 | 27 | 105 | 0.0 | 3.2 | 0.00 | 0.00 | 0.00 | 74 | 1014.5 |
| 20260906003459 | 27 | 42 | 4.8 | 6.4 | 0.00 | 0.00 | 0.00 | 72 | 1014.3 |
| 20260906002954 | 27 | 60 | 1.6 | 6.4 | 0.00 | 0.00 | 0.00 | 71 | 1014.4 |
| 20260906002449 | 27 | 82 | 3.2 | 4.8 | 0.00 | 0.00 | 0.00 | 69 | 1014.3 |
| 20260906001944 | 27 | 74 | 0.0 | 11.3 | 0.00 | 0.00 | 0.00 | 68 | 1014.2 |
| 20260906001440 | 27 | 109 | 4.8 | 6.4 | 0.00 | 0.00 | 0.00 | 67 | 1014.2 |
| 20260906000934 | 28 | 127 | 3.2 | 9.7 | 0.00 | 0.00 | 0.00 | 67 | 1014.3 |
| 20260906000433 | 28 | 90 | 4.8 | 8.0 | 0.00 | 0.00 | 0.00 | 66 | 1014.5 |
| 20260905235925 | 28 | 99 | 0.0 | 9.7 | 0.00 | 0.00 | 0.00 | 66 | 1014.3 |
| 20260905235424 | 28 | 225 | 3.2 | 8.0 | 0.00 | 0.00 | 0.00 | 66 | 1014.4 |
| 20260905234919 | 28 | 96 | 0.0 | 8.0 | 0.00 | 0.00 | 0.00 | 66 | 1014.4 |
| 20260905234415 | 28 | 138 | 4.8 | 8.0 | 0.00 | 0.00 | 0.00 | 66 | 1014.1 |
| 20260905233909 | 28 | 111 | 1.6 | 4.8 | 0.00 | 0.00 | 0.00 | 65 | 1014.3 |
| 20260905233405 | 28 | 102 | 4.8 | 9.7 | 0.00 | 0.00 | 0.00 | 64 | 1014.0 |
| 20260905232903 | 29 | 90 | 0.0 | 8.0 | 0.00 | 0.00 | 0.00 | 63 | 1013.9 |
| 20260905232400 | 29 | 6 | 0.0 | 8.0 | 0.00 | 0.00 | 0.00 | 63 | 1013.8 |
| 20260905231855 | 29 | 95 | 0.0 | 8.0 | 0.00 | 0.00 | 0.00 | 63 | 1014.1 |
| 20260905231350 | 29 | 116 | 4.8 | 4.8 | 0.00 | 0.00 | 0.00 | 63 | 1014.1 |
| 20260905230847 | 29 | 115 | 6.4 | 6.4 | 0.00 | 0.00 | 0.00 | 63 | 1013.7 |
| 20260905230344 | 30 | 99 | 1.6 | 6.4 | 0.00 | 0.00 | 0.00 | 62 | 1013.9 |
| 20260905225844 | 30 | 96 | 3.2 | 9.7 | 0.00 | 0.00 | 0.00 | 63 | 1013.8 |
| 20260905225339 | 30 | 23 | 0.0 | 8.0 | 0.00 | 0.00 | 0.00 | 62 | 1013.8 |
| 20260905224834 | 30 | 99 | 0.0 | 4.8 | 0.00 | 0.00 | 0.00 | 62 | 1013.6 |
| 20260905224330 | 30 | 112 | 3.2 | 9.7 | 0.00 | 0.00 | 0.00 | 61 | 1013.5 |
| 20260905223824 | 30 | 121 | 4.8 | 9.7 | 0.00 | 0.00 | 0.00 | 59 | 1013.7 |
| 20260905223322 | 30 | 355 | 0.0 | 8.0 | 0.00 | 0.00 | 0.00 | 58 | 1013.6 |
| 20260905222817 | 30 | 135 | 0.0 | 8.0 | 0.00 | 0.00 | 0.00 | 60 | 1013.9 |
| 20260905222316 | 30 | 101 | 4.8 | 4.8 | 0.00 | 0.00 | 0.00 | 59 | 1013.8 |
| 20260905221812 | 30 | 228 | 3.2 | 8.0 | 0.00 | 0.00 | 0.00 | 59 | 1013.9 |
| 20260905221309 | 30 | 32 | 4.8 | 11.3 | 0.00 | 0.00 | 0.00 | 60 | 1013.7 |
| 20260905220804 | 30 | 85 | 3.2 | 11.3 | 0.00 | 0.00 | 0.00 | 59 | 1013.9 |
| 20260905220300 | 30 | 114 | 4.8 | 9.7 | 0.00 | 0.00 | 0.00 | 59 | 1014.1 |
| 20260905215759 | 30 | 63 | 1.6 | 6.4 | 0.00 | 0.00 | 0.00 | 60 | 1014.1 |
| 20260905215255 | 30 | 0 | 3.2 | 6.4 | 0.00 | 0.00 | 0.00 | 61 | 1014.1 |
| 20260905214750 | 30 | 90 | 4.8 | 8.0 | 0.00 | 0.00 | 0.00 | 62 | 1014.1 |
| 20260905214246 | 30 | 14 | 1.6 | 12.9 | 0.00 | 0.00 | 0.00 | 63 | 1014.1 |
| 20260905213741 | 30 | 126 | 1.6 | 8.0 | 0.00 | 0.00 | 0.00 | 61 | 1014.1 |
| 20260905213238 | 30 | 15 | 1.6 | 12.9 | 0.00 | 0.00 | 0.00 | 62 | 1014.2 |
| 20260905212733 | 30 | 339 | 0.0 | 8.0 | 0.00 | 0.00 | 0.00 | 61 | 1013.8 |
| 20260905212232 | 30 | 90 | 0.0 | 9.7 | 0.00 | 0.00 | 0.00 | 63 | 1014.0 |
| 20260905211731 | 30 | 36 | 3.2 | 9.7 | 0.00 | 0.00 | 0.00 | 63 | 1014.2 |
| 20260905211227 | 30 | 354 | 4.8 | 14.5 | 0.00 | 0.00 | 0.00 | 64 | 1014.2 |
| 20260905210724 | 30 | 69 | 4.8 | 9.7 | 0.00 | 0.00 | 0.00 | 64 | 1014.0 |
| 20260905210223 | 30 | 77 | 3.2 | 11.3 | 0.00 | 0.00 | 0.00 | 64 | 1014.1 |
| 20260905205722 | 29 | 175 | 3.2 | 25.7 | 0.00 | 0.00 | 0.00 | 66 | 1014.2 |
| 20260905205217 | 30 | 79 | 3.2 | 8.0 | 0.00 | 0.00 | 0.00 | 63 | 1014.3 |
| 20260905204717 | 30 | 0 | 0.0 | 11.3 | 0.00 | 0.00 | 0.00 | 65 | 1014.5 |
| 20260905204212 | 29 | 73 | 3.2 | 11.3 | 0.00 | 0.00 | 0.00 | 66 | 1014.8 |
| 20260905203712 | 29 | 32 | 0.0 | 9.7 | 0.00 | 0.00 | 0.00 | 67 | 1015.0 |
| 20260905203208 | 28 | 90 | 0.0 | 9.7 | 0.00 | 0.00 | 0.00 | 68 | 1015.0 |
| 20260905202703 | 28 | 54 | 1.6 | 8.0 | 0.00 | 0.00 | 0.00 | 69 | 1015.1 |
| 20260905202158 | 28 | 166 | 3.2 | 11.3 | 0.00 | 0.00 | 0.00 | 70 | 1015.0 |
| 20260905201653 | 28 | 174 | 0.0 | 6.4 | 0.00 | 0.00 | 0.00 | 69 | 1015.0 |
| 20260905201153 | 28 | 105 | 1.6 | 8.0 | 0.00 | 0.00 | 0.00 | 70 | 1015.4 |
| 20260905200648 | 28 | 94 | 4.8 | 8.0 | 0.00 | 0.00 | 0.00 | 69 | 1015.3 |
| 20260905200144 | 28 | 103 | 1.6 | 6.4 | 0.00 | 0.00 | 0.00 | 70 | 1015.5 |
| 20260905195642 | 27 | 294 | 0.0 | 6.4 | 0.00 | 0.00 | 0.00 | 71 | 1015.7 |
| 20260905195137 | 28 | 154 | 3.2 | 6.4 | 0.00 | 0.00 | 0.00 | 69 | 1015.7 |
| 20260905194632 | 28 | 121 | 3.2 | 4.8 | 0.00 | 0.00 | 0.00 | 70 | 1015.9 |
| 20260905194132 | 28 | 116 | 4.8 | 8.0 | 0.00 | 0.00 | 0.00 | 70 | 1015.8 |
| 20260905193626 | 27 | 106 | 0.0 | 3.2 | 0.00 | 0.00 | 0.00 | 70 | 1016.1 |
| 20260905193121 | 27 | 126 | 0.0 | 4.8 | 0.00 | 0.00 | 0.00 | 71 | 1015.9 |
| 20260905192617 | 27 | 126 | 1.6 | 6.4 | 0.00 | 0.00 | 0.00 | 70 | 1016.3 |
| 20260905192113 | 27 | 69 | 0.0 | 6.4 | 0.00 | 0.00 | 0.00 | 71 | 1016.1 |
| 20260905191612 | 27 | 17 | 3.2 | 8.0 | 0.00 | 0.00 | 0.00 | 71 | 1016.0 |
| 20260905191111 | 27 | 180 | 0.0 | 3.2 | 0.00 | 0.00 | 0.00 | 72 | 1016.0 |
| 20260905190609 | 27 | 255 | 1.6 | 4.8 | 0.00 | 0.00 | 0.00 | 71 | 1015.9 |
| 20260905190109 | 27 | 26 | 4.8 | 4.8 | 0.00 | 0.00 | 0.00 | 72 | 1015.8 |
| 20260905185608 | 27 | 85 | 3.2 | 9.7 | 0.00 | 0.00 | 0.00 | 72 | 1015.9 |
| 20260905185102 | 27 | 354 | 0.0 | 3.2 | 0.00 | 0.00 | 0.00 | 73 | 1015.9 |
| 20260905184557 | 27 | 119 | 0.0 | 9.7 | 0.00 | 0.00 | 0.00 | 73 | 1016.1 |
| 20260905184055 | 27 | 111 | 0.0 | 4.8 | 0.00 | 0.00 | 0.00 | 73 | 1016.0 |
| 20260905183549 | 27 | 254 | 0.0 | 4.8 | 0.00 | 0.00 | 0.00 | 73 | 1016.1 |
| 20260905183045 | 27 | 278 | 0.0 | 3.2 | 0.00 | 0.00 | 0.00 | 74 | 1015.9 |
| 20260905182544 | 27 | 331 | 1.6 | 4.8 | 0.00 | 0.00 | 0.00 | 74 | 1016.3 |
| 20260905182038 | 27 | 109 | 0.0 | 4.8 | 0.00 | 0.00 | 0.00 | 74 | 1016.3 |
| 20260905181533 | 27 | 346 | 0.0 | 4.8 | 0.00 | 0.00 | 0.00 | 76 | 1016.1 |
| 20260905181033 | 26 | 141 | 4.8 | 4.8 | 0.00 | 0.00 | 0.00 | 76 | 1016.4 |
| 20260905180527 | 26 | 342 | 0.0 | 3.2 | 0.00 | 0.00 | 0.00 | 78 | 1016.3 |
| 20260905180023 | 25 | 0 | 1.6 | 4.8 | 0.00 | 0.00 | 0.00 | 79 | 1016.6 |
| 20260905175522 | 25 | 93 | 4.8 | 8.0 | 0.00 | 0.00 | 0.00 | 80 | 1016.4 |
| 20260905175018 | 25 | 90 | 3.2 | 6.4 | 0.00 | 0.00 | 0.00 | 79 | 1016.8 |
| 20260905174513 | 25 | 229 | 0.0 | 4.8 | 0.00 | 0.00 | 0.00 | 80 | 1016.6 |